This is the latest recevied weather packets stored in our database for station/object N4MGC. If no packets are shown the sender has not sent any weather packets the latest 10 day(s).
| Time | Temp. | Humidity | Pressure | Rain* | Wind** | Luminosity | Snow |
|---|---|---|---|---|---|---|---|
| 1777640742 | 12.22° C | 94% | 1014.8 hPa | 0 mm | - | 50 W/m² | - |
| 1777640439 | 12.22° C | 94% | 1014.7 hPa | 0 mm | - | 62 W/m² | - |
| 1777640136 | 11.67° C | 95% | 1014.7 hPa | 0 mm | - | 73 W/m² | - |
| 1777639833 | 11.67° C | 96% | 1014.6 hPa | 0 mm | - | 62 W/m² | - |
| 1777639530 | 11.67° C | 97% | 1014.8 hPa | 0 mm | - | 46 W/m² | - |
| 1777639227 | 11.67° C | 98% | 1014.6 hPa | 0 mm | - | 52 W/m² | - |
| 1777638923 | 11.67° C | 98% | 1014.7 hPa | 0 mm | - | 56 W/m² | - |
| 1777638619 | 11.11° C | 98% | 1014.7 hPa | 0 mm | - | 46 W/m² | - |
| 1777638316 | 11.11° C | 99% | 1014.8 hPa | 0 mm | - | 26 W/m² | - |
| 1777638011 | 11.11° C | 99% | 1014.9 hPa | 0 mm | - | 25 W/m² | - |
| 1777637708 | 11.11° C | 99% | 1014.7 hPa | 0 mm | - | 21 W/m² | - |
| 1777637405 | 11.11° C | 99% | 1014.6 hPa | 0 mm | - | 20 W/m² | - |
| 1777637102 | 10.56° C | 99% | 1014.4 hPa | 0 mm | - | 19 W/m² | - |
| 1777636797 | 10.56° C | 99% | 1014.6 hPa | 0 mm | - | 18 W/m² | - |
| 1777636494 | 10.56° C | 99% | 1014.5 hPa | 0 mm | - | 18 W/m² | - |
| 1777636190 | 10.56° C | 99% | 1014.1 hPa | 0 mm | - | 12 W/m² | - |
| 1777635885 | 10.56° C | 99% | 1014.2 hPa | 0 mm | - | 11 W/m² | - |
| 1777635582 | 10.56° C | 99% | 1014.2 hPa | 0 mm | - | 11 W/m² | - |
| 1777635279 | 10.56° C | 99% | 1014.1 hPa | 0 mm | - | 11 W/m² | - |
| 1777634975 | 10.56° C | 99% | 1014 hPa | 0 mm | - | 11 W/m² | - |
| 1777634672 | 10.56° C | 99% | 1014.2 hPa | 0 mm | - | 10 W/m² | - |
| 1777634370 | 10.56° C | 99% | 1013.9 hPa | 0 mm | - | 6 W/m² | - |
| 1777634066 | 10.56° C | 99% | 1014 hPa | 0 mm | - | 2 W/m² | - |
| 1777633762 | 10.56° C | 99% | 1014.2 hPa | 0 mm | - | 0 W/m² | - |
| 1777633461 | 10.56° C | 99% | 1013.9 hPa | 0 mm | - | 0 W/m² | - |
* Rain latest hour (hover to see other rain measurements)
** Current wind speed in m/s (hover to see current wind gust speed)